HST 1 20580U 90037B 26121.91159596 .00007512 00000+0 24178-3 0 9990 2 20580 28.4762 36.7154 0001858 357.8470 2.2117 15.30235096781472 POLAR 1 23802U 96013A 26121.05325193 .00000031 00000+0 00000+0 0 9996 2 23802 79.8077 227.5990 6423177 210.6950 87.0184 1.29845840144246 SWAS 1 25560U 98071A 26121.89317267 .00003896 00000+0 25019-3 0 9993 2 25560 69.8974 346.8744 0007634 304.1320 55.9119 15.09301736490280 CXO 1 25867U 99040B 26124.41836995 .00000649 00000+0 00000+0 0 9997 2 25867 55.4609 117.9254 7906762 310.5237 359.9228 0.37801428 17151 XMM-NEWTON 1 25989U 99066A 26123.47149006 .00000033 00000+0 00000+0 0 9992 2 25989 64.7152 283.5560 4687568 65.6998 0.1354 0.50130428 22770 TERRA 1 25994U 99068A 26121.92635612 .00000395 00000+0 89448-4 0 9990 2 25994 97.9494 173.2985 0002897 44.3083 6.7958 14.61065519402858 CLUSTER II-FM7 (SAMBA) 1 26410U 00041A 26123.51430236 .00003227 00000+0 00000+0 0 9998 2 26410 149.7201 43.1034 8995934 259.7563 0.6740 0.44862034 20110 CLUSTER II-FM8 (TANGO) 1 26464U 00045B 26121.13459255 .00002884 00000+0 00000+0 0 9997 2 26464 149.9674 43.7125 9000108 260.1784 0.5507 0.44400441 20080 ODIN 1 26702U 01007A 26121.85946322 .00080915 00000+0 85155-3 0 9995 2 26702 97.3949 160.2633 0000669 358.0010 2.1246 15.64036107382134 TIMED 1 26998U 01055B 26121.90884586 .00001131 00000+0 10650-3 0 9995 2 26998 74.0678 328.1946 0001497 203.1378 156.9739 14.95181611323900 CORIOLIS 1 27640U 03001A 26121.97195576 .00000111 00000+0 72834-4 0 9994 2 27640 98.7140 129.5605 0013766 351.0794 9.0136 14.19931752207662 SORCE 1 27651U 03004A 26121.84503061 .00002996 00000+0 22649-3 0 9998 2 27651 39.9893 166.0238 0015959 78.6319 281.6267 15.03458026264922 MOST 1 27843U 03031D 26121.96050079 .00000070 00000+0 52219-4 0 9998 2 27843 98.7059 130.3295 0010425 31.8516 328.3290 14.21312691184148 SCISAT 1 1 27858U 03036A 26121.83199131 .00000736 00000+0 98700-4 0 9992 2 27858 73.9293 263.4384 0007830 329.6118 30.4603 14.81395357224586 SWIFT 1 28485U 04047A 26121.81579156 .00046485 00000+0 45797-3 0 9997 2 28485 20.5517 181.3990 0002477 47.2235 312.8418 15.64121979179585 HINODE (SOLAR-B) 1 29479U 06041A 26121.65024446 .00000852 00000+0 15481-3 0 9991 2 29479 98.0572 138.4864 0018916 77.1607 283.1710 14.68555129 48045 SHIJIAN-6 02A (SJ-6 02A) 1 29505U 06046A 26121.84233154 .00006750 00000+0 35082-3 0 9997 2 29505 97.6404 162.5702 0001746 325.7900 34.3220 15.16410999 65246 SHIJIAN-6 02B (SJ-6 02B) 1 29506U 06046B 26121.89117801 .00001863 00000+0 14966-3 0 9991 2 29506 97.7141 151.2394 0010965 217.4902 142.5559 15.01237104 63794 FGRST (GLAST) 1 33053U 08029A 26121.80048792 .00003321 00000+0 12075-3 0 9999 2 33053 25.5806 166.5023 0008572 137.0230 223.0978 15.23695591988757 SDO 1 36395U 10005A 26121.41221788 -.00000059 00000+0 00000+0 0 9990 2 36395 34.5566 87.0466 0001028 27.9299 150.9756 1.00272970 59596 CRYOSAT 2 1 36508U 10013A 26121.90501207 .00000225 00000+0 55029-4 0 9996 2 36508 92.0297 266.0663 0002665 91.0819 269.0693 14.51907859851366 X-SAT 1 37389U 11015C 26121.95994287 .00000138 00000+0 75956-4 0 9990 2 37389 98.3483 101.1934 0015035 115.8704 244.4029 14.25192362781091 GCOM-W1 (SHIZUKU) 1 38337U 12025A 26121.88350240 .00000503 00000+0 12168-3 0 9994 2 38337 98.2001 63.1483 0001352 94.4732 310.1186 14.57125962742297 NUSTAR 1 38358U 12031A 26122.00002315 .00011866 00000+0 68664-3 0 9992 2 38358 6.0272 20.4608 0007648 148.3070 58.2939 15.08359264 5334 NEOSSAT 1 39089U 13009D 26121.72838696 .00000168 00000+0 72895-4 0 9992 2 39089 98.4168 302.8679 0011563 30.6926 329.4934 14.35810099690070 BRITE-AUSTRIA 1 39091U 13009F 26121.47146934 .00000213 00000+0 87095-4 0 9993 2 39091 98.3984 302.0659 0010650 26.2077 333.9646 14.36523169690342 IRIS 1 39197U 13033A 26121.83270777 .00001127 00000+0 13529-3 0 9995 2 39197 97.9363 321.2508 0025828 109.6051 250.7956 14.85787852693496 HISAKI (SPRINT-A) 1 39253U 13049A 26121.95089850 .00000131 00000+0 92307-4 0 9994 2 39253 29.7192 95.0745 0136588 2.0460 358.0651 13.55538763625149 CASSIOPE 1 39265U 13055A 26121.91988263 .00026231 -45197-6 30381-3 0 9992 2 39265 80.9126 122.7526 0302461 217.6043 140.3701 15.22045085660625 STSAT-3 1 39422U 13066G 26121.83073388 .00003275 00000+0 25109-3 0 9994 2 39422 97.6181 92.5000 0009434 173.0501 187.0857 15.02483462677244 SWARM B 1 39451U 13067A 26121.90977626 .00003489 00000+0 12548-3 0 9993 2 39451 87.7473 356.3713 0002469 96.3786 263.7745 15.28278434676173 SWARM A 1 39452U 13067B 26121.87810434 .00013271 00000+0 23619-3 0 9994 2 39452 87.3321 73.4260 0003636 88.6808 271.4870 15.49994401699073 SWARM C 1 39453U 13067C 26121.87803830 .00013241 00000+0 23565-3 0 9994 2 39453 87.3323 72.0074 0003637 88.5190 271.6487 15.49996098699034 BRITE-CA1 (TORONTO) 1 40020U 14033L 26121.90268020 .00000971 00000+0 15294-3 0 9996 2 40020 97.9668 251.7042 0079913 65.6131 295.3391 14.72609846635402 OCO 2 1 40059U 14035A 26121.87154239 .00000444 00000+0 10855-3 0 9995 2 40059 98.1996 63.8785 0001300 87.4353 272.6994 14.57071620629305 BRITE-PL2 (HEWELIUSZ) 1 40119U 14049B 26121.84069140 .00002212 00000+0 21059-3 0 9993 2 40119 97.9040 233.5033 0012739 262.0272 97.9502 14.94417160634527 MMS 1 1 40482U 15011A 26122.00002315 -.00000498 00000+0 00000+0 0 9990 2 40482 71.5456 349.4250 8364052 166.4300 266.9853 0.28379665 1379 MMS 2 1 40483U 15011B 26122.00002315 -.00000498 00000+0 00000+0 0 9991 2 40483 71.5458 349.4272 8364813 166.4359 266.9717 0.28379672 1372 MMS 3 1 40484U 15011C 26121.91668981 -.00000494 00000+0 00000+0 0 9994 2 40484 71.5484 349.4327 8364247 166.4241 258.4894 0.28374181 1376 MMS 4 1 40485U 15011D 26122.00002315 -.00000498 00000+0 00000+0 0 9993 2 40485 71.5456 349.4273 8363578 166.4357 266.9684 0.28377405 1373 ASTROSAT 1 40930U 15052A 26121.87328383 .00001725 00000+0 12859-3 0 9995 2 40930 5.9961 128.6920 0007437 93.8805 266.2173 14.82425599572943 DAMPE 1 41173U 15078A 26121.95130355 .00001011 00000+0 36685-4 0 9994 2 41173 97.4565 127.1937 0010399 236.7322 123.2923 15.30666643577473 PISAT 1 41784U 16059B 26121.96041962 .00001049 00000+0 18637-3 0 9995 2 41784 97.8185 124.4024 0028909 356.3687 3.7305 14.68899361512952 HXMT (HUIYAN) 1 42758U 17034A 26121.95097814 .00005260 00000+0 26177-3 0 9994 2 42758 43.0138 80.4091 0032351 213.9847 145.8929 15.18049573490630 FLYING LAPTOP 1 42831U 17042G 26121.98685515 .00004340 00000+0 34472-3 0 9994 2 42831 97.4476 279.3660 0017819 282.2302 77.6926 15.00849684479524 ZHANGHENG 1-01 (CSES-1) 1 43194U 18015C 26121.95057039 .00009348 00000+0 42591-3 0 9993 2 43194 97.6831 286.6985 0017701 66.8897 293.4202 15.20756349457618 SALSAT 1 46495U 20068K 26121.95553893 .00008889 00000+0 31684-3 0 9990 2 46495 97.8856 122.2320 0011686 103.2556 256.9987 15.29110637308292 IXPE 1 49954U 21121A 26121.91668981 .00015644 00000+0 88196-3 0 9992 2 49954 0.2313 307.2827 0007270 101.2228 343.3858 15.09815949 5687